Location: Bambrugge
(50.9212°N, 3.9299°E)
Time: 12:02:16
(UTC+00:00)

Cosmos 1980 Rocket - Pass Details

Date: 23 May 2024
Orbit: 827 x 851 km, 71.0° (Epoch: 14 June)

Event Time Altitude Azimuth Distance (km) Brightness Sun altitude
Rises 01:03:56 0° 324° (NW) 3,428 5.9 -16.1°
Reaches altitude 10° 01:06:38 10° 315° (NW) 2,488 4.9 -16.0°
Maximum altitude 01:11:35 31° 255° (WSW) 1,444 3.1 -15.7°
Enters shadow 01:13:53 23° 216° (SW) 1,719 3.2 -15.6°
